QPF
0.00 0.00 0.00 0.00 0.00 0.00 0.00 0.00 0.00 0.00 0.00 0.00 0.00 0.00 0.00 0.00 0.00 0.00 0.00 0.01 0.11 0.05 0.23 0.37 0.05 0.13 0.03 0.06 0.07 0.06 0.00 0.00 0.00 0.00 0.00 0.00 0.02 0.01 0.00 0.00 0.01 0.01 0.01 0.00 0.01 0.01 0.00 0.00 0.00
0.00 0.00 0.00 0.00 0.00 0.00 0.00 0.00 0.00 0.00 0.00 0.00 0.00 0.00 0.00 0.00 0.00 0.00 0.00 0.04 0.15 0.02 0.07 0.44 0.16 0.07 0.01 0.08 0.10 0.03 0.00 0.00 0.00 0.00 0.00 0.02 0.01 0.00 0.00 0.00 0.00 0.01 0.01 0.00 0.01 0.00 0.00 0.00 0.00
0.00 0.00 0.00 0.00 0.00 0.00 0.00 0.00 0.00 0.00 0.00 0.00 0.00 0.00 0.00 0.00 0.00 0.00 0.00 0.00 0.08 0.01 0.05 0.42 0.26 0.09 0.02 0.05 0.08 0.03 0.00 0.00 0.00 0.00 0.02 0.04 0.00 0.00 0.00 0.00 0.00 0.00 0.00 0.00 0.00 0.00 0.00 0.00 0.00
0.00 0.00 0.00 0.00 0.00 0.00 0.00 0.00 0.00 0.00 0.00 0.00 0.00 0.00 0.00 0.00 0.00 0.00 0.00 0.01 0.10 0.05 0.12 0.33 0.21 0.11 0.13 0.26 0.16 0.02 0.00 0.00 0.00 0.00 0.03 0.01 0.00 0.00 0.00 0.00 0.00 0.00 0.00 0.00 0.00 0.00 0.00 0.00 0.00
0.00 0.00 0.00 0.00 0.00 0.00 0.00 0.00 0.00 0.00 0.00 0.00 0.00 0.00 0.00 0.00 0.00 0.00 0.00 0.00 0.03 0.02 0.23 0.26 0.31 0.20 0.25 0.22 0.14 0.01 0.00 0.00 0.00 0.00 0.01 0.00 0.00 0.00 0.00 0.00 0.00 0.00 0.00 0.00 0.00 0.00 0.00 0.01 0.00
0.00 0.00 0.00 0.00 0.00 0.00 0.00 0.00 0.00 0.00 0.00 0.00 0.00 0.00 0.00 0.00 0.00 0.00 0.00 0.00 0.00 0.00 0.12 0.24 0.08 0.04 0.12 0.09 0.04 0.01 0.00 0.00 0.00 0.00 0.00 0.00 0.00 0.00 0.00 0.00 0.00 0.00 0.00 0.00 0.00 0.00 0.00 0.00 0.00
0.00 0.00 0.00 0.00 0.00 0.00 0.00 0.00 0.00 0.00 0.00 0.00 0.00 0.00 0.00 0.00 0.00 0.00 0.00 0.00 0.00 0.01 0.03 0.34 0.13 0.06 0.12 0.04 0.08 0.03 0.00 0.00 0.00 0.00 0.00 0.00 0.00 0.00 0.01 0.03 0.00 0.00 0.00 0.00 0.00 0.00 0.00 0.00 0.00
0.00 0.00 0.00 0.00 0.00 0.00 0.00 0.00 0.00 0.00 0.00 0.00 0.00 0.00 0.00 0.00 0.00 0.00 0.00 0.01 0.03 0.06 0.05 0.14 0.22 0.14 0.05 0.05 0.07 0.03 0.01 0.02 0.00 0.00 0.00 0.00 0.00 0.00 0.01 0.03 0.00 0.00 0.01 0.00 0.00 0.00 0.00 0.00 0.00
0.00 0.00 0.00 0.00 0.00 0.00 0.00 0.00 0.00 0.00 0.00 0.00 0.00 0.00 0.00 0.00 0.00 0.00 0.00 0.00 0.02 0.11 0.08 0.02 0.03 0.13 0.04 0.01 0.04 0.06 0.00 0.00 0.00 0.00 0.00 0.00 0.00 0.00 0.00 0.00 0.00 0.00 0.00 0.00 0.00 0.00 0.00 0.00 0.00
0.00 0.00 0.00 0.00 0.00 0.00 0.00 0.00 0.00 0.00 0.00 0.00 0.00 0.00 0.00 0.00 0.00 0.00 0.00 0.00 0.00 0.00 0.03 0.03 0.06 0.12 0.03 0.00 0.03 0.06 0.00 0.00 0.00 0.00 0.00 0.00 0.00 0.00 0.00 0.00 0.00 0.00 0.00 0.00 0.00 0.00 0.00 0.00 0.00
0.00 0.00 0.00 0.00 0.00 0.00 0.00 0.00 0.00 0.00 0.00 0.00 0.00 0.00 0.00 0.00 0.00 0.00 0.00 0.00 0.00 0.00 0.00 0.00 0.07 0.07 0.01 0.00 0.00 0.02 0.00 0.00 0.00 0.00 0.00 0.00 0.00 0.00 0.00 0.00 0.00 0.00 0.00 0.00 0.00 0.00 0.00 0.00 0.00
0.00 0.00 0.00 0.00 0.00 0.00 0.00 0.00 0.00 0.00 0.00 0.00 0.00 0.00 0.00 0.00 0.00 0.00 0.00 0.00 0.00 0.00 0.00 0.00 0.02 0.01 0.00 0.00 0.00 0.00 0.00 0.00 0.00 0.00 0.00 0.00 0.00 0.00 0.00 0.00 0.00 0.01 0.01 0.01 0.00 0.00 0.00 0.00 0.00
0.00 0.00 0.00 0.00 0.00 0.00 0.00 0.00 0.00 0.00 0.00 0.00 0.00 0.00 0.00 0.00 0.00 0.00 0.00 0.00 0.00 0.00 0.00 0.00 0.00 0.00 0.00 0.00 0.00 0.00 0.00 0.00 0.00 0.00 0.00 0.00 0.00 0.00 0.00 0.00 0.00 0.00 0.02 0.01 0.00 0.00 0.00 0.00 0.00
0.00 0.00 0.00 0.00 0.00 0.00 0.00 0.00 0.00 0.00 0.00 0.00 0.00 0.00 0.00 0.00 0.00 0.00 0.00 0.00 0.00 0.00 0.00 0.00 0.00 0.00 0.00 0.00 0.00 0.00 0.00 0.00 0.00 0.00 0.00 0.00 0.00 0.00 0.00 0.00 0.00 0.02 0.02 0.01 0.00 0.00 0.00 0.00 0.00
0.00 0.00 0.00 0.00 0.00 0.00 0.00 0.00 0.00 0.00 0.00 0.00 0.00 0.00 0.00 0.00 0.00 0.00 0.00 0.00 0.00 0.00 0.00 0.00 0.00 0.00 0.00 0.00 0.00 0.00 0.00 0.00 0.00 0.00 0.00 0.00 0.00 0.00 0.00 0.00 0.00 0.00 0.01 0.02 0.00 0.00 0.00 0.00 0.00
0.00 0.00 0.00 0.00 0.00 0.00 0.00 0.00 0.00 0.00 0.00 0.00 0.00 0.00 0.00 0.00 0.00 0.00 0.00 0.00 0.00 0.00 0.00 0.00 0.00 0.00 0.00 0.00 0.00 0.00 0.00 0.00 0.00 0.00 0.00 0.00 0.00 0.00 0.00 0.00 0.00 0.00 0.00 0.00 0.00 0.00 0.01 0.01 0.00
0.00 0.00 0.00 0.00 0.00 0.00 0.00 0.00 0.00 0.00 0.00 0.00 0.00 0.00 0.00 0.00 0.00 0.00 0.00 0.00 0.00 0.00 0.00 0.00 0.00 0.00 0.00 0.00 0.00 0.00 0.00 0.00 0.00 0.00 0.00 0.00 0.00 0.00 0.00 0.00 0.01 0.00 0.00 0.00 0.00 0.00 0.00 0.01 0.00
0.00 0.00 0.00 0.00 0.00 0.00 0.00 0.00 0.00 0.00 0.00 0.00 0.00 0.00 0.00 0.00 0.00 0.00 0.00 0.00 0.00 0.00 0.00 0.00 0.00 0.00 0.00 0.00 0.00 0.00 0.00 0.00 0.00 0.00 0.00 0.00 0.00 0.00 0.00 0.00 0.00 0.00 0.00 0.00 0.00 0.00 0.00 0.00 0.00
0.00 0.00 0.00 0.00 0.00 0.00 0.00 0.00 0.00 0.00 0.00 0.00 0.00 0.00 0.00 0.00 0.00 0.00 0.00 0.00 0.00 0.00 0.00 0.01 0.00 0.00 0.00 0.00 0.00 0.00 0.00 0.00 0.00 0.00 0.00 0.00 0.00 0.00 0.00 0.00 0.00 0.00 0.00 0.00 0.00 0.00 0.00 0.00 0.00
0.00 0.00 0.00 0.00 0.00 0.00 0.00 0.00 0.00 0.00 0.00 0.00 0.00 0.00 0.00 0.00 0.00 0.00 0.00 0.00 0.00 0.00 0.00 0.01 0.01 0.00 0.00 0.00 0.00 0.00 0.00 0.00 0.00 0.00 0.00 0.00 0.00 0.00 0.00 0.00 0.00 0.00 0.00 0.00 0.00 0.00 0.00 0.00 0.00
0.00 0.00 0.00 0.00 0.00 0.00 0.00 0.00 0.00 0.00 0.00 0.00 0.00 0.00 0.00 0.00 0.00 0.00 0.00 0.00 0.00 0.00 0.00 0.01 0.01 0.01 0.00 0.02 0.02 0.00 0.00 0.00 0.00 0.00 0.00 0.02 0.00 0.00 0.00 0.00 0.04 0.03 0.00 0.00 0.00 0.00 0.00 0.00 0.00
0.00 0.00 0.00 0.00 0.00 0.00 0.00 0.00 0.00 0.00 0.00 0.00 0.00 0.00 0.00 0.00 0.00 0.00 0.00 0.00 0.00 0.00 0.00 0.01 0.01 0.00 0.00 0.01 0.01 0.00 0.00 0.00 0.00 0.00 0.01 0.10 0.05 0.00 0.00 0.01 0.08 0.07 0.05 0.01 0.00 0.00 0.00 0.04 0.01
0.00 0.00 0.00 0.00 0.00 0.00 0.00 0.00 0.00 0.00 0.00 0.00 0.00 0.00 0.00 0.00 0.00 0.00 0.00 0.00 0.00 0.00 0.00 0.00 0.00 0.00 0.00 0.00 0.00 0.00 0.00 0.00 0.04 0.06 0.01 0.03 0.18 0.17 0.06 0.01 0.12 0.10 0.14 0.07 0.07 0.13 0.13 0.08 0.09
0.00 0.00 0.00 0.00 0.00 0.00 0.00 0.00 0.00 0.00 0.00 0.00 0.00 0.00 0.00 0.00 0.00 0.00 0.00 0.00 0.00 0.00 0.00 0.00 0.00 0.00 0.00 0.00 0.00 0.00 0.00 0.00 0.00 0.00 0.02 0.03 0.03 0.02 0.02 0.01 0.04 0.07 0.07 0.09 0.06 0.11 0.10 0.04 0.01
0.00 0.00 0.00 0.00 0.00 0.00 0.00 0.00 0.00 0.00 0.00 0.00 0.00 0.00 0.00 0.00 0.00 0.00 0.00 0.00 0.00 0.00 0.00 0.00 0.00 0.00 0.00 0.00 0.00 0.00 0.00 0.00 0.00 0.00 0.00 0.00 0.00 0.00 0.03 0.03 0.01 0.01 0.00 0.00 0.03 0.06 0.10 0.09 0.10
0.00 0.00 0.00 0.00 0.00 0.00 0.00 0.00 0.00 0.00 0.00 0.00 0.00 0.00 0.00 0.00 0.00 0.00 0.00 0.00 0.00 0.00 0.00 0.00 0.00 0.00 0.00 0.00 0.00 0.00 0.00 0.00 0.00 0.00 0.00 0.00 0.00 0.00 0.04 0.03 0.02 0.01 0.02 0.01 0.01 0.00 0.04 0.04 0.02
0.00 0.00 0.00 0.00 0.00 0.00 0.00 0.00 0.00 0.00 0.00 0.00 0.00 0.00 0.00 0.00 0.00 0.00 0.00 0.00 0.00 0.00 0.00 0.00 0.00 0.00 0.00 0.00 0.00 0.00 0.00 0.00 0.00 0.00 0.00 0.00 0.00 0.00 0.02 0.03 0.02 0.04 0.04 0.05 0.07 0.01 0.00 0.01 0.01
0.00 0.00 0.00 0.00 0.00 0.00 0.00 0.00 0.00 0.00 0.00 0.00 0.00 0.00 0.00 0.00 0.00 0.00 0.00 0.00 0.00 0.00 0.00 0.00 0.00 0.00 0.00 0.00 0.00 0.00 0.00 0.00 0.00 0.00 0.00 0.00 0.00 0.00 0.00 0.00 0.00 0.00 0.01 0.04 0.06 0.02 0.01 0.01 0.01
0.00 0.00 0.00 0.00 0.00 0.00 0.00 0.00 0.00 0.00 0.00 0.00 0.00 0.00 0.00 0.00 0.00 0.00 0.00 0.00 0.00 0.00 0.00 0.00 0.00 0.00 0.00 0.00 0.00 0.00 0.00 0.00 0.00 0.00 0.00 0.00 0.00 0.00 0.00 0.00 0.00 0.00 0.00 0.00 0.02 0.01 0.01 0.01 0.00
0.00 0.00 0.00 0.00 0.00 0.00 0.00 0.00 0.00 0.00 0.00 0.00 0.00 0.00 0.00 0.00 0.00 0.00 0.00 0.00 0.00 0.00 0.00 0.00 0.00 0.00 0.00 0.00 0.00 0.00 0.00 0.00 0.00 0.00 0.00 0.00 0.00 0.00 0.00 0.00 0.00 0.00 0.00 0.00 0.00 0.01 0.03 0.03 0.01
MSLP
1010.56 1010.50 1010.68 1010.67 1010.27 1008.71 1008.36 1008.56 1008.45 1008.28 1008.76 1009.52 1009.80 1009.99 1011.17 1012.09 1012.52 1013.72 1014.41 1014.32 1014.25 1014.43 1014.85 1014.86 1015.16 1015.42 1015.91 1015.98 1016.19 1016.47 1016.67 1016.94 1017.14 1017.24 1017.55 1017.84 1018.29 1018.53 1018.46 1018.55 1018.71 1018.84 1019.05 1019.21 1019.29 1019.41 1019.63 1019.84 1019.83
1010.24 1010.67 1010.76 1009.97 1009.26 1008.38 1008.58 1008.64 1008.47 1008.94 1009.41 1009.80 1010.26 1010.85 1011.44 1012.82 1013.60 1014.17 1014.48 1014.71 1014.48 1014.70 1015.13 1015.23 1015.58 1015.83 1016.18 1016.45 1016.63 1016.81 1017.10 1017.29 1017.53 1017.73 1017.99 1018.12 1018.64 1018.76 1018.90 1018.96 1019.20 1019.16 1019.28 1019.55 1019.64 1019.75 1019.99 1020.14 1020.17
1010.31 1010.31 1010.02 1009.24 1009.14 1008.49 1008.54 1008.75 1008.89 1009.33 1009.73 1009.87 1010.61 1011.47 1012.27 1013.68 1014.15 1014.19 1014.67 1014.90 1014.94 1015.03 1015.51 1015.76 1015.84 1016.09 1016.53 1016.84 1017.11 1017.24 1017.46 1017.73 1017.87 1018.08 1018.48 1018.60 1018.96 1019.01 1019.42 1019.33 1019.61 1019.63 1019.77 1019.78 1019.90 1019.93 1020.20 1020.44 1020.55
1009.83 1009.96 1009.54 1008.80 1008.56 1008.71 1008.57 1008.67 1008.88 1009.09 1009.62 1010.33 1010.94 1012.00 1013.36 1013.99 1014.22 1014.62 1015.11 1015.02 1015.26 1015.43 1015.93 1016.10 1016.13 1016.57 1016.91 1017.28 1017.40 1017.64 1017.86 1018.13 1018.17 1018.55 1018.84 1019.13 1019.15 1019.33 1019.71 1019.75 1019.92 1019.97 1019.91 1020.13 1020.14 1020.14 1020.59 1020.69 1020.88
1009.59 1009.20 1008.57 1008.42 1008.29 1008.38 1008.46 1008.66 1008.86 1009.12 1010.06 1010.77 1011.25 1012.77 1013.73 1014.61 1014.63 1015.10 1015.37 1015.44 1015.56 1015.85 1016.24 1016.55 1016.68 1017.00 1017.65 1017.80 1017.67 1017.98 1018.20 1018.46 1018.63 1018.93 1019.21 1019.43 1019.55 1019.68 1019.76 1020.04 1020.29 1020.16 1020.27 1020.46 1020.51 1020.62 1020.68 1020.95 1021.07
1009.00 1009.10 1008.47 1008.12 1007.91 1007.88 1008.04 1008.31 1008.77 1009.37 1010.24 1010.91 1011.91 1012.97 1014.65 1015.18 1015.05 1015.37 1015.64 1015.80 1015.82 1016.18 1016.66 1016.81 1017.29 1017.53 1017.94 1018.10 1018.02 1018.25 1018.47 1018.68 1019.02 1019.34 1019.59 1019.81 1019.99 1020.07 1020.19 1020.45 1020.47 1020.44 1020.55 1020.64 1020.83 1020.93 1021.00 1021.07 1021.17
1008.56 1008.50 1008.45 1008.11 1007.70 1007.49 1007.68 1008.13 1008.44 1009.15 1009.98 1010.85 1011.77 1013.03 1014.91 1015.21 1015.49 1015.74 1016.06 1016.34 1016.32 1016.58 1017.07 1017.24 1017.47 1017.83 1017.95 1018.30 1018.33 1018.58 1018.69 1018.97 1019.28 1019.62 1019.92 1020.16 1020.31 1020.42 1020.61 1020.67 1020.66 1020.84 1020.73 1020.90 1021.06 1021.20 1021.24 1021.21 1021.36
1008.47 1008.35 1008.13 1007.81 1007.36 1007.46 1007.91 1008.12 1008.47 1008.83 1010.01 1010.93 1011.57 1012.50 1014.25 1014.98 1015.64 1016.00 1016.32 1016.62 1016.84 1017.04 1017.35 1017.81 1017.98 1017.99 1018.23 1018.35 1018.66 1018.74 1019.00 1019.41 1019.67 1019.88 1020.12 1020.33 1020.42 1020.57 1020.81 1021.03 1021.10 1021.06 1020.99 1021.14 1021.30 1021.38 1021.44 1021.46 1021.40
1008.34 1007.87 1007.62 1007.51 1007.22 1007.20 1007.85 1008.15 1008.80 1009.31 1009.85 1010.82 1011.71 1012.38 1013.43 1015.01 1015.60 1016.04 1016.45 1016.83 1017.19 1017.65 1017.83 1018.19 1018.12 1018.25 1018.36 1018.62 1018.75 1018.96 1018.87 1019.37 1019.89 1020.05 1020.24 1020.42 1020.39 1020.66 1020.80 1021.00 1021.22 1021.22 1021.25 1021.35 1021.43 1021.60 1021.61 1021.70 1021.61
1008.14 1008.07 1007.66 1007.40 1007.18 1006.93 1007.59 1007.98 1008.56 1009.15 1009.85 1011.08 1012.31 1013.39 1014.37 1015.29 1015.72 1015.98 1016.37 1016.75 1017.19 1017.48 1017.90 1018.02 1018.37 1018.56 1018.76 1018.67 1018.95 1019.02 1019.42 1019.80 1020.17 1020.24 1020.37 1020.52 1020.63 1020.83 1020.87 1021.06 1021.28 1021.34 1021.44 1021.55 1021.54 1021.61 1021.70 1021.70 1021.25
1008.25 1007.66 1007.70 1006.96 1006.83 1006.74 1007.30 1007.90 1008.45 1008.83 1009.63 1010.63 1012.07 1013.53 1014.55 1015.26 1015.82 1016.13 1016.42 1016.83 1017.21 1017.49 1017.84 1018.28 1018.43 1018.81 1018.99 1018.94 1019.00 1019.30 1019.65 1020.14 1020.29 1020.42 1020.65 1020.81 1021.06 1021.12 1020.96 1021.06 1021.16 1021.15 1021.41 1021.15 1021.30 1021.35 1021.30 1021.43 1021.28
1008.04 1007.62 1007.46 1006.80 1006.68 1006.91 1007.24 1007.75 1008.42 1008.92 1009.49 1010.31 1011.88 1013.08 1014.25 1014.94 1015.45 1015.93 1016.43 1016.94 1017.32 1017.81 1018.02 1018.38 1018.73 1018.89 1019.25 1019.35 1019.39 1019.58 1019.97 1020.14 1020.26 1020.39 1020.64 1020.75 1020.92 1021.04 1021.19 1021.08 1021.23 1021.32 1021.33 1021.35 1021.39 1021.25 1021.42 1021.47 1021.44
1007.94 1007.31 1006.98 1006.58 1006.43 1006.80 1007.47 1008.19 1008.71 1009.39 1010.13 1010.85 1012.12 1013.22 1014.03 1014.91 1015.52 1016.02 1016.51 1017.07 1017.49 1017.87 1018.25 1018.54 1018.73 1018.96 1019.23 1019.52 1019.68 1019.76 1020.03 1020.30 1020.45 1020.77 1020.78 1020.67 1020.81 1020.96 1021.20 1021.30 1021.41 1021.36 1021.35 1021.35 1021.55 1021.60 1021.39 1021.42 1021.30
1007.83 1007.38 1006.64 1006.44 1006.31 1006.69 1007.15 1008.15 1008.65 1010.27 1010.75 1011.38 1012.27 1013.14 1013.88 1014.63 1015.38 1015.97 1016.44 1016.81 1017.30 1017.78 1018.24 1018.63 1018.90 1018.99 1019.31 1019.51 1019.78 1019.90 1020.20 1020.14 1020.41 1020.52 1020.75 1020.71 1020.98 1020.93 1021.20 1021.28 1021.23 1021.14 1021.15 1021.13 1021.26 1021.47 1021.35 1021.33 1021.13
1007.78 1007.19 1006.48 1006.35 1006.33 1006.73 1007.00 1008.17 1008.92 1010.16 1010.79 1011.62 1012.41 1013.34 1014.11 1014.81 1015.40 1015.72 1016.19 1016.64 1017.03 1017.44 1018.04 1018.39 1018.73 1018.96 1019.14 1019.36 1019.67 1019.87 1019.89 1020.04 1020.07 1020.15 1020.46 1020.60 1020.75 1020.76 1020.99 1020.98 1021.03 1020.97 1020.87 1020.99 1021.15 1021.35 1021.49 1021.24 1020.99
1007.51 1007.20 1005.96 1006.19 1005.98 1006.83 1007.01 1007.78 1009.46 1010.31 1010.72 1011.55 1012.37 1013.32 1014.05 1014.52 1014.99 1015.48 1016.01 1016.52 1017.03 1017.44 1017.86 1018.40 1018.58 1018.87 1019.04 1019.29 1019.62 1019.67 1019.74 1019.79 1019.88 1020.04 1020.14 1020.32 1020.45 1020.48 1020.59 1020.56 1020.34 1020.45 1020.53 1020.73 1020.98 1021.13 1021.09 1021.09 1021.02
1007.39 1006.46 1006.23 1005.95 1006.07 1006.34 1006.93 1007.82 1009.49 1010.33 1010.79 1011.44 1012.26 1012.92 1013.55 1014.21 1014.71 1015.10 1015.57 1016.06 1016.56 1017.18 1017.76 1018.18 1018.55 1018.77 1019.13 1019.34 1019.53 1019.74 1019.89 1019.89 1019.79 1019.92 1019.95 1020.01 1020.10 1020.14 1020.20 1020.10 1020.17 1020.34 1020.39 1020.30 1020.46 1020.60 1020.85 1020.79 1020.77
1006.78 1006.49 1006.41 1006.19 1006.30 1006.37 1006.81 1008.24 1009.42 1010.28 1010.69 1011.18 1011.93 1012.46 1012.88 1013.41 1013.75 1014.45 1015.16 1015.72 1016.22 1016.80 1017.42 1017.94 1018.34 1018.63 1018.97 1019.17 1019.46 1019.43 1019.45 1019.50 1019.56 1019.51 1019.40 1019.51 1019.52 1019.59 1019.67 1019.48 1019.64 1019.91 1019.86 1019.94 1020.14 1020.33 1020.47 1020.57 1020.43
1007.06 1006.66 1006.34 1006.45 1006.63 1006.63 1007.16 1008.32 1009.17 1010.05 1010.49 1010.85 1011.40 1011.96 1012.35 1012.70 1013.30 1014.03 1014.79 1015.39 1015.91 1016.47 1017.00 1017.51 1018.03 1018.40 1018.85 1019.00 1019.06 1019.04 1018.82 1018.96 1018.99 1019.06 1019.25 1019.37 1019.48 1019.49 1019.56 1019.30 1019.14 1019.25 1019.34 1019.42 1019.77 1020.00 1020.22 1020.16 1020.11
1006.91 1006.54 1006.38 1006.81 1006.99 1006.86 1007.60 1008.42 1009.30 1009.83 1010.09 1010.42 1010.86 1011.31 1011.73 1012.35 1012.91 1013.64 1014.41 1014.89 1015.33 1015.77 1016.32 1016.99 1017.49 1017.82 1018.09 1018.28 1018.44 1018.47 1018.46 1018.39 1018.39 1018.38 1018.55 1018.74 1018.80 1018.91 1019.05 1018.92 1018.58 1018.55 1018.69 1019.00 1019.25 1019.54 1019.52 1019.55 1019.47
1006.42 1006.08 1006.25 1006.37 1007.02 1007.39 1007.62 1008.34 1009.02 1009.53 1009.96 1010.24 1010.54 1010.87 1011.33 1011.74 1012.35 1013.24 1013.88 1014.34 1014.84 1015.33 1015.77 1016.17 1016.66 1016.97 1017.29 1017.61 1018.07 1018.22 1018.35 1018.31 1018.33 1018.16 1018.04 1017.98 1018.20 1018.23 1018.29 1018.30 1018.29 1018.16 1018.32 1018.27 1018.57 1018.69 1018.85 1018.52 1018.63
1006.03 1006.28 1006.44 1006.58 1006.74 1007.20 1008.01 1007.74 1008.47 1008.81 1009.10 1009.36 1009.59 1010.09 1010.66 1011.27 1011.99 1012.61 1013.27 1013.85 1014.13 1014.62 1015.20 1015.49 1015.80 1016.35 1016.89 1017.48 1017.74 1017.86 1017.72 1017.78 1017.69 1017.76 1017.77 1017.82 1017.78 1017.56 1017.68 1017.81 1017.69 1017.61 1017.58 1017.78 1017.65 1017.85 1017.93 1018.02 1017.75
1006.20 1006.52 1006.84 1007.00 1007.11 1007.47 1008.09 1008.08 1007.83 1008.54 1008.24 1008.13 1008.57 1009.17 1009.86 1010.57 1011.17 1011.76 1012.34 1012.91 1013.56 1014.05 1014.19 1014.72 1015.54 1016.12 1016.65 1017.05 1017.39 1017.55 1017.57 1017.44 1017.52 1017.57 1017.57 1017.43 1017.36 1017.58 1017.27 1017.02 1016.97 1017.18 1017.04 1017.12 1017.04 1017.05 1017.21 1017.31 1017.36
1006.47 1006.67 1007.11 1007.48 1007.46 1007.65 1008.28 1008.31 1007.52 1007.63 1007.07 1007.15 1007.91 1008.50 1009.14 1009.91 1010.58 1011.16 1011.88 1012.47 1012.88 1013.49 1014.01 1014.55 1015.23 1015.67 1016.26 1016.70 1016.97 1017.04 1016.93 1016.88 1017.04 1017.09 1017.09 1017.00 1016.86 1016.65 1016.45 1016.42 1016.41 1016.16 1016.21 1016.23 1016.11 1016.36 1016.51 1016.56 1016.60
1006.43 1006.52 1006.86 1007.28 1007.56 1007.81 1008.88 1008.78 1007.29 1007.63 1007.45 1007.40 1007.32 1007.89 1008.56 1009.32 1010.05 1010.73 1011.44 1011.94 1012.29 1012.90 1013.64 1014.20 1014.73 1015.18 1015.72 1016.13 1016.27 1016.45 1016.63 1016.79 1016.76 1016.63 1016.36 1016.21 1015.94 1015.86 1015.91 1016.07 1015.98 1015.72 1015.69 1015.65 1015.66 1015.82 1015.92 1015.96 1016.07
1006.45 1006.42 1006.73 1007.21 1007.86 1008.35 1009.25 1008.22 1007.48 1007.86 1007.70 1007.60 1007.51 1007.95 1008.64 1009.08 1009.63 1010.28 1010.81 1011.26 1011.72 1012.39 1013.09 1013.66 1014.19 1014.73 1015.14 1015.45 1015.78 1016.07 1016.21 1016.20 1016.11 1015.94 1015.87 1015.67 1015.46 1015.26 1015.25 1015.27 1015.05 1015.14 1015.13 1015.13 1015.08 1015.25 1015.20 1015.34 1015.40
1006.86 1007.04 1007.76 1007.91 1009.15 1008.63 1008.54 1008.19 1007.61 1007.76 1007.67 1007.74 1007.77 1008.22 1008.59 1008.99 1009.43 1009.98 1010.52 1010.97 1011.49 1012.00 1012.66 1013.33 1013.83 1014.27 1014.58 1014.87 1015.14 1015.34 1015.56 1015.56 1015.43 1015.51 1015.59 1015.35 1015.26 1015.01 1014.96 1014.85 1014.74 1014.59 1014.47 1014.63 1014.69 1014.70 1014.78 1014.68 1014.57
1006.18 1007.28 1007.75 1007.92 1008.19 1008.22 1008.29 1008.13 1007.54 1007.75 1007.79 1007.92 1007.96 1008.06 1008.56 1009.10 1009.51 1009.91 1010.37 1010.90 1011.49 1012.14 1012.80 1013.23 1013.50 1013.79 1014.08 1014.37 1014.59 1014.72 1014.91 1015.15 1015.28 1015.37 1015.30 1015.17 1014.89 1014.76 1014.65 1014.53 1014.37 1014.19 1014.10 1014.08 1013.99 1013.70 1013.67 1013.89 1013.73
1006.97 1007.12 1007.95 1008.24 1008.55 1008.15 1008.08 1007.59 1007.64 1007.67 1007.84 1007.85 1007.99 1008.22 1008.56 1008.98 1009.43 1009.90 1010.36 1011.21 1011.92 1012.35 1012.73 1013.06 1013.40 1013.73 1013.86 1014.07 1014.45 1014.66 1014.86 1015.07 1015.19 1015.18 1014.95 1014.73 1014.60 1014.43 1014.19 1013.94 1013.78 1013.64 1013.46 1013.33 1013.20 1013.03 1012.72 1012.74 1012.69
1006.52 1006.78 1007.13 1007.40 1008.73 1008.80 1008.43 1007.49 1007.49 1007.84 1007.99 1008.18 1008.28 1008.63 1008.91 1009.26 1009.76 1010.28 1010.96 1011.66 1012.08 1012.35 1012.77 1013.00 1013.35 1013.63 1013.95 1014.41 1014.47 1014.48 1014.70 1014.86 1014.81 1014.67 1014.52 1014.43 1014.23 1013.92 1013.66 1013.41 1013.18 1012.98 1012.88 1012.76 1012.54 1012.24 1012.00 1011.83 1011.75
Thickness
5815 5816 5814 5804 5792 5795 5775 5771 5786 5781 5779 5784 5786 5781 5766 5764 5759 5747 5764 5769 5771 5769 5766 5767 5767 5765 5761 5762 5761 5761 5762 5763 5764 5767 5766 5765 5763 5763 5768 5769 5769 5769 5765 5766 5767 5768 5766 5765 5765
5821 5817 5810 5802 5788 5774 5767 5784 5779 5782 5784 5789 5784 5778 5769 5752 5761 5759 5761 5767 5769 5767 5765 5764 5764 5763 5761 5760 5759 5759 5761 5763 5763 5763 5763 5764 5761 5761 5764 5766 5765 5768 5767 5764 5767 5768 5765 5766 5765
5823 5822 5805 5798 5779 5772 5768 5782 5784 5787 5791 5788 5778 5779 5769 5753 5760 5764 5766 5766 5766 5766 5762 5762 5763 5762 5760 5758 5758 5758 5759 5758 5760 5761 5760 5762 5760 5762 5759 5763 5762 5764 5763 5764 5765 5768 5766 5765 5765
5824 5816 5812 5796 5780 5784 5785 5790 5795 5793 5795 5792 5784 5766 5769 5771 5765 5766 5765 5765 5764 5763 5761 5761 5761 5759 5757 5754 5755 5755 5756 5755 5757 5759 5758 5758 5759 5761 5759 5761 5759 5761 5765 5761 5762 5766 5764 5764 5762
5828 5818 5802 5790 5788 5792 5797 5801 5801 5793 5787 5784 5784 5762 5761 5766 5771 5767 5765 5764 5762 5761 5760 5759 5758 5757 5752 5751 5751 5752 5753 5753 5754 5755 5754 5754 5756 5758 5759 5758 5756 5761 5762 5760 5761 5762 5764 5763 5762
5818 5815 5794 5786 5793 5801 5807 5811 5804 5796 5791 5788 5776 5769 5756 5767 5768 5766 5765 5762 5761 5760 5757 5757 5754 5754 5751 5749 5750 5749 5750 5751 5750 5750 5750 5751 5752 5755 5755 5755 5755 5759 5759 5760 5759 5760 5761 5762 5762
5817 5810 5794 5791 5795 5801 5808 5819 5807 5801 5794 5787 5789 5764 5759 5764 5768 5765 5762 5760 5759 5757 5755 5752 5751 5750 5751 5750 5750 5749 5749 5749 5747 5747 5747 5747 5748 5750 5752 5753 5755 5755 5757 5757 5758 5758 5760 5761 5761
5823 5816 5799 5800 5798 5798 5812 5815 5819 5811 5794 5804 5799 5773 5758 5768 5769 5765 5762 5760 5757 5755 5751 5748 5748 5749 5749 5747 5747 5747 5747 5745 5744 5743 5743 5744 5745 5748 5749 5750 5750 5754 5755 5754 5755 5757 5758 5760 5762
5834 5811 5800 5801 5803 5810 5817 5809 5817 5820 5805 5803 5798 5790 5786 5777 5773 5765 5760 5757 5754 5749 5747 5745 5745 5748 5748 5747 5746 5746 5749 5744 5742 5743 5743 5744 5747 5747 5748 5749 5748 5750 5752 5752 5753 5753 5756 5757 5759
5820 5802 5805 5820 5822 5819 5820 5817 5815 5810 5803 5794 5788 5788 5782 5776 5771 5764 5760 5755 5752 5749 5747 5747 5746 5745 5746 5748 5746 5745 5744 5743 5741 5741 5740 5742 5744 5744 5746 5746 5746 5746 5747 5748 5749 5750 5752 5754 5758
5818 5809 5820 5828 5832 5834 5825 5818 5824 5813 5798 5802 5789 5783 5780 5776 5771 5766 5764 5759 5753 5752 5750 5748 5747 5745 5745 5746 5745 5744 5743 5740 5740 5741 5740 5740 5740 5742 5743 5744 5744 5746 5745 5748 5748 5749 5751 5752 5755
5814 5824 5825 5834 5837 5831 5823 5828 5818 5819 5814 5819 5805 5796 5787 5780 5776 5772 5767 5762 5758 5753 5754 5752 5747 5745 5743 5745 5745 5745 5743 5743 5743 5744 5743 5743 5744 5744 5743 5743 5743 5744 5744 5745 5747 5748 5747 5749 5752
5815 5825 5834 5840 5840 5834 5830 5819 5816 5814 5818 5818 5806 5797 5789 5783 5778 5776 5773 5768 5763 5756 5754 5752 5749 5746 5744 5743 5743 5744 5744 5743 5743 5741 5742 5744 5743 5742 5743 5742 5741 5743 5744 5744 5743 5745 5747 5747 5751
5824 5827 5835 5838 5840 5837 5828 5821 5825 5808 5815 5810 5804 5797 5792 5787 5782 5778 5774 5770 5765 5761 5757 5755 5752 5750 5746 5745 5745 5745 5743 5742 5742 5742 5741 5742 5741 5740 5739 5738 5741 5740 5742 5743 5745 5745 5746 5746 5749
5825 5818 5833 5834 5838 5830 5839 5813 5813 5814 5816 5805 5802 5797 5791 5787 5784 5780 5778 5774 5772 5768 5763 5760 5756 5754 5752 5750 5748 5746 5746 5745 5746 5745 5743 5742 5742 5741 5739 5739 5739 5740 5743 5744 5743 5744 5745 5746 5749
5816 5818 5818 5834 5841 5833 5835 5808 5811 5819 5815 5805 5801 5796 5792 5789 5787 5786 5783 5778 5775 5772 5768 5763 5761 5757 5755 5753 5750 5750 5749 5749 5749 5747 5746 5745 5745 5745 5743 5742 5743 5742 5742 5743 5741 5741 5743 5744 5745
5809 5807 5810 5824 5841 5836 5831 5814 5814 5820 5816 5807 5802 5798 5795 5791 5789 5789 5788 5784 5780 5775 5771 5766 5763 5760 5757 5754 5753 5751 5750 5750 5751 5750 5749 5749 5748 5747 5746 5746 5745 5743 5742 5744 5741 5742 5741 5743 5742
5801 5805 5809 5811 5828 5834 5828 5810 5815 5818 5817 5811 5806 5802 5799 5796 5795 5795 5791 5787 5784 5780 5775 5770 5767 5764 5760 5757 5755 5755 5755 5755 5755 5754 5754 5753 5753 5751 5750 5751 5750 5747 5747 5747 5744 5742 5741 5740 5743
5811 5808 5808 5818 5826 5827 5822 5810 5814 5817 5818 5814 5810 5805 5803 5802 5804 5799 5794 5790 5786 5783 5778 5773 5768 5766 5764 5761 5759 5759 5760 5760 5760 5758 5756 5755 5753 5752 5750 5751 5751 5751 5751 5751 5748 5746 5741 5741 5742
5808 5808 5810 5815 5821 5824 5812 5807 5812 5816 5818 5819 5815 5811 5809 5806 5803 5800 5794 5792 5790 5787 5783 5778 5773 5771 5770 5769 5767 5765 5764 5764 5763 5761 5760 5758 5758 5756 5753 5753 5756 5755 5754 5751 5749 5745 5743 5744 5746
5812 5813 5810 5813 5815 5817 5814 5804 5805 5815 5819 5820 5820 5819 5815 5810 5806 5800 5796 5794 5793 5788 5785 5783 5780 5778 5776 5773 5767 5764 5762 5761 5759 5761 5761 5760 5758 5757 5756 5755 5755 5756 5755 5754 5751 5750 5747 5746 5747
5807 5819 5816 5811 5809 5793 5804 5786 5800 5811 5814 5819 5823 5820 5817 5814 5810 5806 5800 5795 5795 5793 5791 5789 5787 5781 5777 5773 5768 5764 5763 5758 5761 5763 5761 5759 5759 5760 5757 5755 5755 5756 5755 5754 5754 5753 5751 5749 5747
5812 5818 5810 5806 5800 5797 5790 5788 5810 5803 5809 5821 5827 5825 5823 5820 5815 5811 5808 5804 5801 5797 5796 5794 5788 5782 5777 5774 5769 5765 5761 5763 5762 5761 5758 5757 5758 5756 5756 5757 5757 5755 5754 5754 5754 5754 5751 5750 5747
5815 5810 5801 5797 5797 5776 5779 5783 5797 5803 5819 5830 5830 5827 5826 5822 5818 5815 5813 5808 5805 5802 5796 5791 5785 5782 5778 5774 5769 5766 5764 5764 5761 5759 5757 5758 5760 5760 5759 5758 5756 5757 5757 5754 5754 5751 5750 5748 5747
5810 5803 5775 5770 5771 5769 5772 5770 5802 5810 5821 5826 5830 5829 5828 5826 5820 5814 5808 5806 5806 5802 5797 5794 5788 5782 5779 5773 5770 5768 5765 5762 5759 5759 5760 5759 5761 5760 5758 5755 5755 5755 5753 5751 5750 5748 5746 5744 5742
5801 5805 5780 5749 5758 5767 5764 5771 5800 5811 5820 5827 5832 5831 5827 5824 5822 5815 5813 5811 5807 5802 5796 5792 5787 5780 5778 5775 5771 5768 5764 5761 5760 5759 5759 5759 5759 5759 5757 5754 5753 5750 5748 5747 5746 5744 5744 5741 5740
5791 5791 5793 5769 5748 5761 5769 5785 5807 5809 5811 5817 5821 5820 5819 5820 5819 5814 5813 5811 5807 5801 5796 5790 5784 5779 5776 5773 5770 5767 5765 5763 5761 5758 5755 5755 5754 5754 5752 5750 5748 5746 5744 5742 5740 5739 5737 5736 5737
5810 5798 5778 5775 5747 5744 5761 5762 5781 5794 5798 5807 5810 5814 5815 5815 5813 5812 5810 5806 5801 5796 5790 5787 5784 5778 5774 5770 5768 5765 5761 5757 5754 5751 5748 5747 5748 5745 5743 5742 5740 5740 5739 5736 5734 5736 5736 5732 5733
5789 5787 5773 5777 5764 5756 5747 5767 5798 5797 5802 5802 5807 5811 5811 5809 5808 5807 5805 5798 5790 5787 5783 5779 5775 5770 5766 5764 5759 5755 5751 5748 5744 5741 5741 5740 5740 5738 5738 5736 5734 5732 5731 5730 5729 5728 5730 5728 5728
5797 5791 5793 5776 5748 5750 5756 5771 5803 5799 5800 5801 5803 5804 5806 5805 5802 5799 5792 5785 5780 5778 5774 5771 5767 5762 5757 5752 5749 5747 5743 5738 5737 5735 5734 5731 5729 5729 5728 5728 5726 5725 5723 5722 5721 5721 5721 5720 5720